Location: Elfinger Hof
(48.9985°N, 8.7734°E)
Time: 09:56:37
(UTC+00:00)

Daily predictions for brighter satellites

Satellite Brightness Start Highest point End
(mag) Time Altitude Azimuth Time Altitude Azimuth Time Altitude Azimuth
IRS-1C Rocket 4.4 19:38:05 10° SE 19:43:11 54° ENE 19:48:19 10° N
Cosmos 44 3.9 19:38:35 10° NNW 19:43:23 48° NE 19:47:52 10° ESE
Lacrosse 5 rocket 1.7 19:39:47 10° SSW 19:43:53 44° SE 19:47:56 10° ENE
Cosmos 2369 Rocket 3.2 19:39:45 10° NNW 19:44:50 34° NE 19:49:53 10° ESE
Cosmos 1812 Rocket 3.7 19:41:02 10° S 19:45:22 59° E 19:49:43 10° NNE
CARTOSAT-1 4.5 19:42:12 10° S 19:46:19 48° W 19:50:29 10° NNW
ATLAS 5 CENTAUR R/B 3.9 19:42:34 10° WNW 19:46:52 27° WSW 19:51:52 10° S
CSL-04 Rocket 4.4 19:43:28 10° S 19:48:38 52° W 19:53:48 10° NNW
Cosmos 2344 4.2 19:42:17 10° NW 19:50:36 86° SW 20:02:08 10° SE
Cosmos 2221 3.5 19:47:05 10° SSE 19:50:49 29° E 19:54:34 10° NNE
Cosmos 2084 4.0 19:50:16 10° NNW 19:53:51 39° NE 19:57:25 10° ESE
Resurs 01 Rocket 3.0 19:50:41 10° SSW 19:54:48 38° W 19:58:58 10° NNW
Cosmos 2237 Rocket 2.6 19:53:05 10° SW 19:58:46 70° WNW 20:04:29 10° NNE
BREEZE-M DEB (TANK) 2.6 19:56:39 10° SW 19:59:48 35° SSE 20:01:48 10° E
USA 308 3.5 19:57:56 10° W 20:00:07 24° SW 20:02:44 10° SSE
Cosmos 1378 2.9 19:58:05 10° S 20:01:17 53° E 20:04:30 10° NNE
ATLAS 3B R/B 3.1 19:54:10 10° NW 20:02:04 90° SW 20:09:48 10° SE
BREEZE-M DEB (TANK) 4.0 19:59:40 10° SW 20:03:07 43° SSE 20:11:25 10° E
Cosmos 921 Rocket 4.2 20:01:35 10° SSE 20:05:17 26° E 20:09:02 10° NE
Aureole 3 Rocket 3.2 20:02:51 10° N 20:06:21 50° E 20:10:53 10° SSE
Cosmos 1980 4.5 20:01:22 10° SW 20:06:56 58° WNW 20:12:32 10° NNE
GEOS 3 Rocket 4.1 20:02:52 10° NE 20:07:37 35° ESE 20:12:16 10° S
Cosmos 923 Rocket 4.0 20:02:22 10° SSW 20:07:39 74° ESE 20:13:00 10° NNE
SPOT 5 2.7 20:03:10 10° SSE 20:07:51 89° ENE 20:12:21 10° NNW
Meteor 2-21 Rocket 4.5 20:01:59 10° S 20:08:11 85° E 20:14:24 10° N
USA 306 4.0 20:05:04 10° WNW 20:08:34 37° N 20:12:13 10° ENE
Landsat 4 3.9 20:08:45 12° SE 20:11:52 49° ENE 20:15:17 10° N
Cosmos 1464 Rocket 4.4 20:06:06 10° NNW 20:12:22 66° W 20:18:31 10° S
ARGOS Delta rocket 4.1 20:10:03 10° SSE 20:15:08 63° ENE 20:19:59 10° N
Okean O Rocket 3.6 20:12:59 10° SSW 20:16:46 27° W 20:20:35 10° NW
USA 234 4.4 20:11:48 10° ENE 20:17:57 44° N 20:24:03 10° WNW
Terra 1.9 20:13:56 11° SSE 20:18:23 63° ENE 20:23:03 10° N
Cosmos 1656 Rocket 3.7 20:17:13 10° NNW 20:22:41 71° ENE 20:27:23 14° SE
Cosmos 1371 Rocket 4.1 20:17:52 10° NNW 20:23:15 86° ENE 20:28:03 13° SSE
ERS-1 Rocket 3.0 20:18:56 10° SSE 20:23:54 83° ENE 20:28:57 10° NNW
ATLAS 2AS CENTAUR R/B 3.4 20:19:01 10° SW 20:26:19 64° NW 20:33:22 10° NE
Cosmos 1842 Rocket 4.5 20:24:38 14° SE 20:27:44 31° E 20:31:39 10° NNE
SPOT 3 Rocket 3.7 20:24:07 13° SSE 20:28:36 63° ENE 20:33:42 10° N
Cosmos 1782 4.5 20:26:37 10° SW 20:30:05 33° WNW 20:33:35 10° N
USA 59 Rocket 2.3 20:28:42 10° N 20:30:38 14° NNE 20:32:49 10° ENE
IRS-1A Rocket 4.5 20:25:46 10° S 20:31:25 71° WSW 20:37:00 10° NNW
USA 281 3.4 20:27:32 14° SE 20:33:19 69° ENE 20:39:53 10° NNW
Meteor 1-26 Rocket 4.5 20:27:29 10° S 20:33:32 87° WNW 20:39:37 10° NNE
Cosmos 1943 Rocket 3.8 20:29:44 10° NW 20:34:34 29° WSW 20:39:21 10° SSW
Cosmos 1420 Rocket 4.3 20:30:28 10° NNW 20:35:45 66° WSW 20:40:30 13° S
Cosmos 1743 2.5 20:35:10 10° N 20:38:48 82° E 20:41:25 18° SSE
ISS -3.2 20:37:13 10° WNW 20:40:30 57° N 20:43:45 10° E
USA 245 2.8 20:42:39 19° SSW 20:43:59 43° W 20:46:09 10° NNW
Cosmos 2279 Rocket 4.2 20:40:06 10° N 20:46:15 60° ENE 20:50:54 18° SSE
Cosmos 2297 3.8 20:41:13 10° NNW 20:46:59 77° WSW 20:51:24 17° SSE
Cosmos 1634 Rocket 4.0 20:40:54 10° N 20:47:15 87° E 20:52:38 15° S
Cosmos 2112 Rocket 4.2 20:44:45 10° SSW 20:50:05 80° WNW 20:55:25 10° NNE
USA 290 4.1 20:48:25 10° NW 20:51:07 24° WSW 20:53:34 11° SSW
Cosmos 1766 Rocket 3.8 20:47:29 10° NNW 20:51:55 69° W 20:55:32 15° S
USA 229 DEB 4.0 20:48:10 10° NW 20:55:34 87° NE 21:01:46 19° SE
USA 229 4.0 20:48:15 10° NW 20:55:40 87° NE 21:01:53 19° SE
Cosmos 1726 2.0 20:54:16 10° N 20:57:22 51° ENE 20:58:35 30° SE
Spot 2 Rocket 3.7 20:54:06 15° S 20:58:15 67° WSW 21:03:18 10° NNW
Cosmos 1680 Rocket 4.2 20:55:11 10° SW 21:00:24 58° WNW 21:05:37 10° NNE
Meteor 2-6 Rocket 4.2 20:58:35 10° S 21:04:15 88° E 21:09:47 10° NNE
USA 32 4.3 21:01:27 10° SSW 21:06:38 68° W 21:11:52 10° N
Cosmos 1743 Rocket 4.5 21:04:45 10° N 21:08:48 35° ENE 21:10:51 23° ESE
Tsikada Rocket 4.5 21:03:05 10° SSW 21:09:10 61° WNW 21:15:24 10° N
Sich 1 3.7 21:09:42 10° N 21:13:52 42° ENE 21:15:51 26° SE
MetOp-A 3.6 21:11:24 25° SSE 21:13:57 88° E 21:18:44 10° NNW
USA 276 2.0 21:13:27 10° W 21:15:14 41° WSW 21:15:14 41° WSW
SL-16 R/B 2.9 21:10:21 10° SW 21:15:56 57° WNW 21:21:33 10° NNE
Cosmos 2263 4.2 21:10:46 10° NNW 21:16:29 80° WSW 21:20:00 24° SSE
MOS 1 Rocket 3.9 21:13:56 18° S 21:17:34 60° W 21:22:46 10° NNW
Cosmos 1603 4.3 21:15:41 24° SSE 21:18:24 38° ESE 21:23:36 10° NE
Cosmos 1536 2.7 21:16:41 10° N 21:20:35 79° E 21:22:15 33° SSE
Lacrosse 5 3.3 21:16:32 10° WNW 21:20:40 25° SW 21:23:08 17° SSW
Ariane Rocket 3.8 21:16:49 15° SSW 21:20:47 44° W 21:25:39 10° NNW
Cosmos 2180 Rocket 4.4 21:15:31 10° N 21:21:46 79° E 21:25:40 24° SSE
Lacrosse 5 rocket 2.5 21:18:07 10° W 21:22:16 47° NNW 21:26:21 10° NE
USA 267 4.3 21:17:45 10° ENE 21:22:40 22° SE 21:23:24 22° SE
Cosmos 1452 Rocket 3.5 21:18:36 10° NNW 21:23:53 85° ENE 21:26:45 28° SSE
Cosmos 1408 Rocket 3.5 21:19:30 10° N 21:23:58 85° E 21:26:12 29° SSE
Cosmos 44 4.5 21:20:09 10° NW 21:24:21 30° WSW 21:26:45 19° SSW
Spot 1 4.0 21:20:34 10° NNE 21:24:38 76° WNW 21:27:37 18° SSW
Meteor 1-27 Rocket 4.0 21:22:18 25° SSE 21:25:12 50° E 21:30:33 10° NNE
Okean 1 3.3 21:25:59 35° SSE 21:27:21 58° E 21:31:10 10° NNE
Cosmos 1340 3.3 21:24:51 10° N 21:28:01 35° ENE 21:28:50 30° ESE
Cosmos 2221 4.3 21:24:16 10° SW 21:28:05 30° WNW 21:31:56 10° N
Cosmos 2369 Rocket 2.7 21:23:40 10° NW 21:29:02 49° WSW 21:32:23 22° S
Cosmos 2084 4.5 21:29:31 10° WNW 21:32:45 27° WSW 21:33:53 23° SSW
FALCON 9 R/B 4.5 21:29:48 10° WSW 21:36:43 36° S 21:57:36 10° ESE
USA 306 3.1 21:38:57 10° WNW 21:42:46 58° NNE 21:45:08 22° E
Cosmos 921 Rocket 4.4 21:39:07 10° SW 21:43:19 39° WNW 21:47:32 10° N
GEOS 3 Rocket 4.3 21:40:44 10° NE 21:45:48 55° NW 21:50:48 10° WSW
ATLAS 3B R/B 4.4 21:45:53 10° WNW 21:52:01 26° WSW 21:57:02 13° SSW
Landsat 5 4.4 21:48:43 10° N 21:52:16 40° WNW 21:54:55 16° SW
Meteor 2-17 Rocket 4.4 21:50:28 28° S 21:53:52 77° E 21:59:57 10° NNE
SL-8 R/B 3.7 21:50:38 10° SW 21:55:15 51° SSE 21:59:52 10° E
Cosmos 1500 Rocket 3.8 21:52:01 10° NNW 21:56:17 61° W 21:57:58 34° SSW
Terra 4.0 21:53:13 10° SW 21:56:24 18° W 21:59:37 10° NW
Cosmos 1943 3.3 21:53:57 12° SSW 21:59:11 76° WNW 22:04:53 10° NNE
Cosmos 1733 3.0 21:55:56 10° NNW 21:59:26 70° W 22:00:07 52° SSW
Spot 4 4.4 21:58:25 30° ESE 22:00:21 47° ENE 22:04:54 10° N
USA 234 3.8 21:53:58 10° E 22:00:21 57° NNE 22:06:45 10° WNW
ALOS 2 3.8 21:58:50 24° ESE 22:00:30 32° ENE 22:04:26 10° N
Meteor 2-4 Rocket 4.2 22:00:28 31° SSE 22:02:49 48° E 22:08:30 10° NNE
Cosmos 1048 Rocket 4.5 21:59:01 13° SW 22:03:35 58° WNW 22:08:40 10° NNE
H-2A R/B 2.6 22:02:30 42° SE 22:03:41 63° ENE 22:07:51 10° N
Cosmos 1805 Rocket 3.8 22:00:54 10° NNW 22:05:13 60° W 22:06:48 36° SSW
IRIDIUM 104 4.3 22:00:54 10° N 22:06:09 74° E 22:08:14 37° SSE
Lacrosse 4 Rocket 3.1 22:04:43 10° NNW 22:08:11 26° NE 22:10:34 16° E
Cosmos 1151 Rocket 2.9 22:08:37 43° S 22:10:01 85° E 22:14:24 10° N
Cosmos 1092 Rocket 4.1 22:10:25 33° SSE 22:13:14 62° E 22:19:27 10° NNE
Cosmos 1666 Rocket 3.7 22:08:57 10° N 22:13:15 59° ENE 22:14:23 43° SE
Cosmos 1428 Rocket 4.4 22:11:50 32° S 22:14:53 80° E 22:21:01 10° NNE
Cosmos 1302 Rocket 3.9 22:10:03 10° NNW 22:15:16 85° WSW 22:17:13 40° SSE
IRIDIUM 114 4.3 22:10:03 10° N 22:15:19 87° E 22:17:22 38° S
Cosmos 1656 4.4 22:10:46 10° NNW 22:16:00 46° NE 22:19:03 23° ESE
Cosmos 1633 Rocket 3.4 22:12:36 10° N 22:16:57 54° ENE 22:18:08 41° SE
ISS -3.1 22:13:56 10° WNW 22:16:33 43° WSW 22:16:33 43° WSW
ARIANE 5 R/B 2.8 22:16:04 41° SSW 22:17:23 63° WSW 22:21:42 10° NNW
Cosmos 1340 Rocket 3.0 22:17:22 41° SW 22:18:37 67° WNW 22:22:37 10° N
USA 59 Rocket 0.3 22:17:06 10° NW 22:20:51 63° NE 22:22:59 31° ESE
NOSS 2-1 (E) 3.8 22:17:58 10° NW 22:21:43 64° NE 22:23:49 32° ESE
MINOTAUR 4 R/B 4.2 22:19:13 10° N 22:22:08 49° WNW 22:22:21 48° W
Cosmos 1992 Rocket 4.2 22:18:27 10° NNW 22:23:39 61° ENE 22:25:48 34° SE
IRIDIUM 103 4.3 22:19:13 10° N 22:24:28 79° W 22:26:30 38° S
H-2A R/B 3.7 22:22:05 10° NE 22:25:24 20° E 22:25:53 20° ESE
CZ-2C R/B 3.9 22:20:54 10° N 22:25:26 64° WNW 22:27:23 32° SW
Cosmos 1697 Rocket 4.3 22:21:44 10° NNW 22:26:35 28° NE 22:31:17 10° ESE
Cosmos 614 Rocket 4.1 22:27:45 42° SSE 22:29:16 60° ESE 22:34:25 10° NNE
Cosmos 1766 3.8 22:26:48 10° N 22:30:24 42° ENE 22:30:52 40° E
Cosmos 2195 Rocket 4.4 22:27:33 33° S 22:30:33 87° W 22:36:42 10° N
Cosmos 1980 Rocket 4.5 22:27:38 10° N 22:31:41 19° NE 22:35:43 10° E
NOSS 2-1 (D) 3.5 22:29:35 10° NW 22:33:21 82° NE 22:34:55 41° SE
Cosmos 1470 4.3 22:31:07 10° NNE 22:34:11 23° ENE 22:34:54 22° E
Nadezhda 4 Rocket 4.5 22:30:39 22° SW 22:34:37 55° WNW 22:40:44 10° N
Cosmos 1805 3.7 22:36:07 10° NNW 22:39:41 45° W 22:40:09 43° WSW
Spot 2 4.3 22:50:57 49° SSW 22:52:05 71° WSW 22:56:52 10° NNW
Cosmos 1975 3.5 22:52:54 10° NNW 22:56:37 40° W 22:57:09 38° WSW
NOSS 3-3 (A) 4.1 22:59:40 39° SSE 23:00:54 45° ESE 23:06:51 10° NE
Lacrosse 5 rocket 3.6 22:57:44 10° WNW 23:01:22 27° N 23:04:55 10° NE
Cosmos 1626 2.3 23:04:42 51° WNW 23:04:42 51° WNW 23:07:48 10° N
Cosmos 1269 Rocket 4.0 23:04:35 46° S 23:06:02 66° ESE 23:11:16 10° NNE
USA 267 3.2 22:59:56 10° ENE 23:06:28 70° SE 23:10:42 24° SW
Cosmos 1674 2.8 23:07:50 54° E 23:07:50 54° E 23:11:06 10° NNE
NOSS 2-1 (C) 3.8 23:04:45 10° NW 23:08:35 55° SW 23:09:07 51° SSW
Cosmos 2082 Rocket 4.3 23:08:47 11° ESE 23:10:24 12° E 23:12:27 10° ENE
PSLV R/B 3.7 23:08:29 10° NNE 23:13:05 70° ESE 23:13:59 54° SSE
USA 306 3.8 23:12:49 10° WNW 23:15:15 30° W 23:15:15 30° W
Cosmos 1833 Rocket 3.2 23:17:10 37° SE 23:18:32 44° ESE 23:23:50 10° NE
Cosmos 44 Rocket 4.2 23:17:42 10° NNW 23:22:30 46° NE 23:26:07 16° ESE
S3M 4.1 23:19:11 10° N 23:25:34 75° E 23:28:28 35° SSE
NOSS 3-3 (C) 3.8 23:26:06 42° S 23:27:53 64° SE 23:34:12 10° NE
SL-24 R/B 4.2 23:25:50 10° NNE 23:30:16 78° WNW 23:31:32 48° SSW
Cosmos 2285 Rocket 4.5 23:29:13 34° SSE 23:31:27 47° ESE 23:37:28 10° NNE
Cosmos 1515 Rocket 3.6 23:31:37 52° SW 23:32:30 68° WNW 23:36:50 10° N
GP-B 3.4 23:30:34 10° N 23:34:56 58° E 23:35:54 46° SE
Cosmos 1400 Rocket 4.5 23:34:57 21° ESE 23:35:38 22° E 23:38:46 10° NE
ALOS 2 3.7 23:36:13 29° WSW 23:36:50 30° W 23:40:45 10° NNW
Cosmos 1553 Rocket 4.3 23:31:29 10° NNW 23:37:22 52° W 23:39:39 35° SSW
SL-8 R/B 3.5 23:32:45 10° W 23:37:32 85° S 23:42:19 10° E
Cosmos 1869 Rocket 3.5 23:37:40 10° N 23:42:02 79° E 23:42:58 54° SSE
USA 234 3.2 23:38:50 22° SE 23:43:18 70° SW 23:49:52 10° WNW
Meteor 1-13 Rocket 4.4 23:41:22 39° S 23:43:38 72° E 23:49:32 10° NNE
Cosmos 1733 Rocket 4.3 23:41:11 10° N 23:45:07 33° ENE 23:46:57 24° ESE
Lacrosse 4 Rocket 1.8 23:42:45 10° NW 23:46:28 43° WSW 23:46:28 43° WSW
